Year,Month,Day,Hour,Minute,Value (Times are PST for temperature in C)
2010,07,11,00,00,20.90
2010,07,11,00,01,21.00
2010,07,11,00,02,21.00
2010,07,11,00,03,21.20
2010,07,11,00,04,21.30
2010,07,11,00,05,21.30
2010,07,11,00,06,21.40
2010,07,11,00,07,21.50
2010,07,11,00,08,21.70
2010,07,11,00,09,21.80
2010,07,11,00,10,21.90
2010,07,11,00,11,22.00
2010,07,11,00,12,22.10
2010,07,11,00,13,22.20
2010,07,11,00,14,22.30
2010,07,11,00,15,22.30
2010,07,11,00,16,22.40
2010,07,11,00,17,22.50
2010,07,11,00,18,22.50
2010,07,11,00,19,22.60
2010,07,11,00,20,22.70
2010,07,11,00,21,22.70
2010,07,11,00,22,22.80
2010,07,11,00,23,22.80
2010,07,11,00,24,22.80
2010,07,11,00,25,22.90
2010,07,11,00,26,22.90
2010,07,11,00,27,22.90
2010,07,11,00,28,22.90
2010,07,11,00,29,22.90
2010,07,11,00,30,22.90
2010,07,11,00,31,22.90
2010,07,11,00,32,22.90
2010,07,11,00,33,22.90
2010,07,11,00,34,23.00
2010,07,11,00,35,23.00
2010,07,11,00,36,23.00
2010,07,11,00,37,23.00
2010,07,11,00,38,23.00
2010,07,11,00,39,23.00
2010,07,11,00,40,23.00
2010,07,11,00,41,23.00
2010,07,11,00,42,23.00
2010,07,11,00,43,23.00
2010,07,11,00,44,23.00
2010,07,11,00,45,23.00
2010,07,11,00,46,22.90
2010,07,11,00,47,22.90
2010,07,11,00,48,22.90
2010,07,11,00,49,22.90
2010,07,11,00,50,22.90
2010,07,11,00,51,22.90
2010,07,11,00,52,22.90
2010,07,11,00,53,22.90
2010,07,11,00,54,22.90
2010,07,11,00,55,22.80
2010,07,11,00,56,22.80
2010,07,11,00,57,22.80
2010,07,11,00,58,22.80
2010,07,11,00,59,22.80
2010,07,11,01,00,22.80
2010,07,11,01,01,22.70
2010,07,11,01,02,22.70
2010,07,11,01,03,22.70
2010,07,11,01,04,22.60
2010,07,11,01,05,22.60
2010,07,11,01,06,22.60
2010,07,11,01,07,22.50
2010,07,11,01,08,22.50
2010,07,11,01,09,22.40
2010,07,11,01,10,22.40
2010,07,11,01,11,22.30
2010,07,11,01,12,22.30
2010,07,11,01,13,22.30
2010,07,11,01,14,22.20
2010,07,11,01,15,22.20
2010,07,11,01,16,22.20
2010,07,11,01,17,22.20
2010,07,11,01,18,22.10
2010,07,11,01,19,22.10
2010,07,11,01,20,22.10
2010,07,11,01,21,22.10
2010,07,11,01,22,22.00
2010,07,11,01,23,22.00
2010,07,11,01,24,21.90
2010,07,11,01,25,21.90
2010,07,11,01,26,21.90
2010,07,11,01,27,21.90
2010,07,11,01,28,21.80
2010,07,11,01,29,21.80
2010,07,11,01,30,21.80
2010,07,11,01,31,21.80
2010,07,11,01,32,21.80
2010,07,11,01,33,21.70
2010,07,11,01,34,21.70
2010,07,11,01,35,21.70
2010,07,11,01,36,21.70
2010,07,11,01,37,21.70
2010,07,11,01,38,21.70
2010,07,11,01,39,21.70
2010,07,11,01,40,21.60
2010,07,11,01,41,21.60
2010,07,11,01,42,21.60
2010,07,11,01,43,21.60
2010,07,11,01,44,21.50
2010,07,11,01,45,21.50
2010,07,11,01,46,21.40
2010,07,11,01,47,21.40
2010,07,11,01,48,21.40
2010,07,11,01,49,21.40
2010,07,11,01,50,21.40
2010,07,11,01,51,21.40
2010,07,11,01,52,21.30
2010,07,11,01,53,21.30
2010,07,11,01,54,21.30
2010,07,11,01,55,21.30
2010,07,11,01,56,21.30
2010,07,11,01,57,21.20
2010,07,11,01,58,21.20
2010,07,11,01,59,21.20
2010,07,11,02,00,21.20
2010,07,11,02,01,21.20
2010,07,11,02,02,21.20
2010,07,11,02,03,21.20
2010,07,11,02,04,21.20
2010,07,11,02,05,21.20
2010,07,11,02,06,21.10
2010,07,11,02,07,21.10
2010,07,11,02,08,21.10
2010,07,11,02,09,21.10
2010,07,11,02,10,21.10
2010,07,11,02,11,21.10
2010,07,11,02,12,21.10
2010,07,11,02,13,21.00
2010,07,11,02,14,21.00
2010,07,11,02,15,21.00
2010,07,11,02,16,20.90
2010,07,11,02,17,20.90
2010,07,11,02,18,20.90
2010,07,11,02,19,20.90
2010,07,11,02,20,20.90
2010,07,11,02,21,20.90
2010,07,11,02,22,20.90
2010,07,11,02,23,20.90
2010,07,11,02,24,20.90
2010,07,11,02,25,20.90
2010,07,11,02,26,20.80
2010,07,11,02,27,20.80
2010,07,11,02,28,20.80
2010,07,11,02,29,20.80
2010,07,11,02,30,20.80
2010,07,11,02,31,20.80
2010,07,11,02,32,20.80
2010,07,11,02,33,20.70
2010,07,11,02,34,20.70
2010,07,11,02,35,20.70
2010,07,11,02,36,20.70
2010,07,11,02,37,20.70
2010,07,11,02,38,20.70
2010,07,11,02,39,20.70
2010,07,11,02,40,20.70
2010,07,11,02,41,20.70
2010,07,11,02,42,20.60
2010,07,11,02,43,20.60
2010,07,11,02,44,20.60
2010,07,11,02,45,20.60
2010,07,11,02,46,20.60
2010,07,11,02,47,20.60
2010,07,11,02,48,20.60
2010,07,11,02,49,20.60
2010,07,11,02,50,20.60
2010,07,11,02,51,20.60
2010,07,11,02,52,20.60
2010,07,11,02,53,20.60
2010,07,11,02,54,20.50
2010,07,11,02,55,20.50
2010,07,11,02,56,20.50
2010,07,11,02,57,20.50
2010,07,11,02,58,20.40
2010,07,11,02,59,20.40
2010,07,11,03,00,20.40
2010,07,11,03,01,20.40
2010,07,11,03,02,20.40
2010,07,11,03,03,20.30
2010,07,11,03,04,20.30
2010,07,11,03,05,20.30
2010,07,11,03,06,20.30
2010,07,11,03,07,20.30
2010,07,11,03,08,20.30
2010,07,11,03,09,20.30
2010,07,11,03,10,20.30
2010,07,11,03,11,20.30
2010,07,11,03,12,20.30
2010,07,11,03,13,20.30
2010,07,11,03,14,20.30
2010,07,11,03,15,20.30
2010,07,11,03,16,20.30
2010,07,11,03,17,20.30
2010,07,11,03,18,20.30
2010,07,11,03,19,20.30
2010,07,11,03,28,20.30
2010,07,11,03,29,20.30
2010,07,11,03,30,20.30
2010,07,11,03,31,20.30
2010,07,11,03,32,20.30
2010,07,11,03,33,20.30
2010,07,11,03,34,20.20
2010,07,11,03,35,20.20
2010,07,11,03,36,20.20
2010,07,11,03,37,20.20
2010,07,11,03,38,20.20
2010,07,11,03,39,20.20
2010,07,11,03,40,20.10
2010,07,11,03,41,20.10
2010,07,11,03,42,20.10
2010,07,11,03,43,20.10
2010,07,11,03,44,20.10
2010,07,11,03,45,20.00
2010,07,11,03,46,20.00
2010,07,11,03,47,20.00
2010,07,11,03,48,20.00
2010,07,11,03,49,20.00
2010,07,11,03,50,20.00
2010,07,11,03,51,20.00
2010,07,11,03,52,20.00
2010,07,11,03,53,20.10
2010,07,11,03,54,20.00
2010,07,11,03,55,20.00
2010,07,11,03,56,20.00
2010,07,11,03,57,20.00
2010,07,11,03,58,20.00
2010,07,11,03,59,20.00
2010,07,11,04,00,20.00
2010,07,11,04,01,20.00
2010,07,11,04,02,20.00
2010,07,11,04,03,20.00
2010,07,11,04,04,20.00
2010,07,11,04,05,20.00
2010,07,11,04,06,20.10
2010,07,11,04,07,20.10
2010,07,11,04,08,20.10
2010,07,11,04,09,20.10
2010,07,11,04,10,20.10
2010,07,11,04,11,20.10
2010,07,11,04,12,20.00
2010,07,11,04,13,20.00
2010,07,11,04,14,19.90
2010,07,11,04,15,19.90
2010,07,11,04,16,19.90
2010,07,11,04,17,19.80
2010,07,11,04,18,19.80
2010,07,11,04,19,19.80
2010,07,11,04,20,19.80
2010,07,11,04,21,19.70
2010,07,11,04,22,19.70
2010,07,11,04,23,19.70
2010,07,11,04,24,19.60
2010,07,11,04,25,19.60
2010,07,11,04,26,19.60
2010,07,11,04,27,19.50
2010,07,11,04,28,19.50
2010,07,11,04,29,19.50
2010,07,11,04,30,19.40
2010,07,11,04,31,19.40
2010,07,11,04,32,19.40
2010,07,11,04,33,19.40
2010,07,11,04,34,19.30
2010,07,11,04,35,19.30
2010,07,11,04,36,19.30
2010,07,11,04,37,19.30
2010,07,11,04,38,19.30
2010,07,11,04,39,19.30
2010,07,11,04,40,19.30
2010,07,11,04,41,19.30
2010,07,11,04,42,19.30
2010,07,11,04,43,19.30
2010,07,11,04,44,19.30
2010,07,11,04,45,19.30
2010,07,11,04,46,19.30
2010,07,11,04,47,19.30
2010,07,11,04,48,19.20
2010,07,11,04,49,19.20
2010,07,11,04,50,19.20
2010,07,11,04,51,19.20
2010,07,11,04,52,19.20
2010,07,11,04,53,19.10
2010,07,11,04,54,19.10
2010,07,11,04,55,19.00
2010,07,11,04,56,19.00
2010,07,11,04,57,19.00
2010,07,11,04,58,18.90
2010,07,11,04,59,18.90
2010,07,11,05,00,18.90
2010,07,11,05,01,18.80
2010,07,11,05,02,18.80
2010,07,11,05,03,18.80
2010,07,11,05,04,18.80
2010,07,11,05,05,18.80
2010,07,11,05,06,18.80
2010,07,11,05,07,18.70
2010,07,11,05,08,18.70
2010,07,11,05,09,18.70
2010,07,11,05,10,18.70
2010,07,11,05,11,18.70
2010,07,11,05,12,18.60
2010,07,11,05,13,18.60
2010,07,11,05,14,18.60
2010,07,11,05,15,18.60
2010,07,11,05,16,18.50
2010,07,11,05,17,18.50
2010,07,11,05,18,18.50
2010,07,11,05,19,18.40
2010,07,11,05,20,18.40
2010,07,11,05,21,18.40
2010,07,11,05,22,18.30
2010,07,11,05,23,18.30
2010,07,11,05,24,18.30
2010,07,11,05,25,18.30
2010,07,11,05,26,18.20
2010,07,11,05,27,18.20
2010,07,11,05,28,18.20
2010,07,11,05,29,18.10
2010,07,11,05,30,18.10
2010,07,11,05,31,18.00
2010,07,11,05,32,18.00
2010,07,11,05,33,18.00
2010,07,11,05,34,17.90
2010,07,11,05,35,17.90
2010,07,11,05,36,17.80
2010,07,11,05,37,17.80
2010,07,11,05,38,17.70
2010,07,11,05,39,17.70
2010,07,11,05,40,17.70
2010,07,11,05,41,17.60
2010,07,11,05,42,17.60
2010,07,11,05,43,17.60
2010,07,11,05,44,17.60
2010,07,11,05,45,17.60
2010,07,11,05,46,17.60
2010,07,11,05,47,17.60
2010,07,11,05,48,17.50
2010,07,11,05,49,17.50
2010,07,11,05,50,17.50
2010,07,11,05,51,17.50
2010,07,11,05,52,17.40
2010,07,11,05,53,17.40
2010,07,11,05,54,17.40
2010,07,11,05,55,17.40
2010,07,11,05,56,17.40
2010,07,11,05,57,17.30
2010,07,11,05,58,17.30
2010,07,11,05,59,17.30
2010,07,11,06,00,17.40
2010,07,11,06,01,17.40
2010,07,11,06,02,17.40
2010,07,11,06,03,17.40
2010,07,11,06,04,17.40
2010,07,11,06,05,17.40
2010,07,11,06,06,17.40
2010,07,11,06,07,17.50
2010,07,11,06,08,17.50
2010,07,11,06,09,17.50
2010,07,11,06,10,17.60
2010,07,11,06,11,17.60
2010,07,11,06,12,17.70
2010,07,11,06,13,17.70
2010,07,11,06,14,17.70
2010,07,11,06,15,17.70
2010,07,11,06,16,17.70
2010,07,11,06,17,17.70
2010,07,11,06,18,17.70
2010,07,11,06,19,17.70
2010,07,11,06,20,17.80
2010,07,11,06,21,17.80
2010,07,11,06,22,17.80
2010,07,11,06,23,17.90
2010,07,11,06,24,17.90
2010,07,11,06,25,18.00
2010,07,11,06,26,18.00
2010,07,11,06,27,18.00
2010,07,11,06,28,18.10
2010,07,11,06,29,18.10
2010,07,11,06,30,18.20
2010,07,11,06,31,18.30
2010,07,11,06,32,18.40
2010,07,11,06,33,18.50
2010,07,11,06,34,18.50
2010,07,11,06,35,18.60
2010,07,11,06,36,18.60
2010,07,11,06,37,18.60
2010,07,11,06,38,18.60
2010,07,11,06,39,18.70
2010,07,11,06,40,18.70
2010,07,11,06,41,18.80
2010,07,11,06,42,18.80
2010,07,11,06,43,18.90
2010,07,11,06,44,19.00
2010,07,11,06,45,19.00
2010,07,11,06,46,19.10
2010,07,11,06,47,19.10
2010,07,11,06,48,19.20
2010,07,11,06,49,19.20
2010,07,11,06,50,19.30
2010,07,11,06,51,19.30
2010,07,11,06,52,19.30
2010,07,11,06,53,19.40
2010,07,11,06,54,19.40
2010,07,11,06,55,19.40
2010,07,11,06,56,19.50
2010,07,11,06,57,19.50
2010,07,11,06,58,19.60
2010,07,11,06,59,19.60
2010,07,11,07,00,19.60
2010,07,11,07,01,19.60
2010,07,11,07,02,19.60
2010,07,11,07,03,19.70
2010,07,11,07,04,19.70
2010,07,11,07,05,19.80
2010,07,11,07,06,19.80
2010,07,11,07,07,19.80
2010,07,11,07,08,19.80
2010,07,11,07,09,19.80
2010,07,11,07,10,19.80
2010,07,11,07,11,19.90
2010,07,11,07,12,19.90
2010,07,11,07,13,19.90
2010,07,11,07,14,19.90
2010,07,11,07,15,20.00
2010,07,11,07,16,20.00
2010,07,11,07,17,20.00
2010,07,11,07,18,20.10
2010,07,11,07,19,20.10
2010,07,11,07,20,20.10
2010,07,11,07,21,20.20
2010,07,11,07,22,20.20
2010,07,11,07,23,20.30
2010,07,11,07,24,20.30
2010,07,11,07,25,20.30
2010,07,11,07,26,20.30
2010,07,11,07,27,20.40
2010,07,11,07,28,20.40
2010,07,11,07,29,20.40
2010,07,11,07,30,20.40
2010,07,11,07,31,20.40
2010,07,11,07,32,20.40
2010,07,11,07,33,20.40
2010,07,11,07,34,20.40
2010,07,11,07,35,20.40
2010,07,11,07,36,20.40
2010,07,11,07,37,20.40
2010,07,11,07,38,20.40
2010,07,11,07,39,20.40
2010,07,11,07,40,20.40
2010,07,11,07,41,20.40
2010,07,11,07,42,20.40
2010,07,11,07,43,20.40
2010,07,11,07,44,20.40
2010,07,11,07,45,20.40
2010,07,11,07,46,20.40
2010,07,11,07,47,20.40
2010,07,11,07,48,20.40
2010,07,11,07,49,20.40
2010,07,11,07,50,20.40
2010,07,11,07,51,20.40
2010,07,11,07,52,20.40
2010,07,11,07,53,20.40
2010,07,11,07,54,20.40
2010,07,11,07,55,20.40
2010,07,11,07,56,20.40
2010,07,11,07,57,20.40
2010,07,11,07,58,20.40
2010,07,11,07,59,20.40
2010,07,11,08,00,20.40
2010,07,11,08,01,20.40
2010,07,11,08,02,20.50
2010,07,11,08,03,20.50
2010,07,11,08,04,20.60
2010,07,11,08,05,20.60
2010,07,11,08,06,20.70
2010,07,11,08,07,20.70
2010,07,11,08,08,20.80
2010,07,11,08,09,20.80
2010,07,11,08,10,20.90
2010,07,11,08,11,20.90
2010,07,11,08,12,21.00
2010,07,11,08,13,21.00
2010,07,11,08,14,21.10
2010,07,11,08,15,21.10
2010,07,11,08,16,21.20
2010,07,11,08,17,21.20
2010,07,11,08,18,21.20
2010,07,11,08,19,21.20
2010,07,11,08,20,21.10
2010,07,11,08,21,21.10
2010,07,11,08,22,21.10
2010,07,11,08,23,21.10
2010,07,11,08,24,21.10
2010,07,11,08,25,21.20
2010,07,11,08,26,21.20
2010,07,11,08,27,21.20
2010,07,11,08,28,21.30
2010,07,11,08,29,21.30
2010,07,11,08,30,21.30
2010,07,11,08,31,21.30
2010,07,11,08,32,21.40
2010,07,11,08,33,21.40
2010,07,11,08,34,21.50
2010,07,11,08,35,21.50
2010,07,11,08,36,21.60
2010,07,11,08,37,21.70
2010,07,11,08,38,21.70
2010,07,11,08,39,21.70
2010,07,11,08,40,21.70
2010,07,11,08,41,21.70
2010,07,11,08,42,21.70
2010,07,11,08,43,21.70
2010,07,11,08,44,21.70
2010,07,11,08,45,21.70
2010,07,11,08,46,21.60
2010,07,11,08,47,21.60
2010,07,11,08,48,21.60
2010,07,11,08,49,21.50
2010,07,11,08,50,21.50
2010,07,11,08,51,21.50
2010,07,11,08,52,21.50
2010,07,11,08,53,21.60
2010,07,11,08,54,21.60
2010,07,11,08,55,21.60
2010,07,11,08,56,21.60
2010,07,11,08,57,21.60
2010,07,11,08,58,21.60
2010,07,11,08,59,21.50
2010,07,11,09,00,21.50
2010,07,11,09,01,21.50
2010,07,11,09,02,21.50
2010,07,11,09,03,21.50
2010,07,11,09,04,21.50
2010,07,11,09,05,21.40
2010,07,11,09,06,21.50
2010,07,11,09,07,21.60
2010,07,11,09,08,21.60
2010,07,11,09,09,21.70
2010,07,11,09,10,21.70
2010,07,11,09,11,21.80
2010,07,11,09,12,21.80
2010,07,11,09,13,21.90
2010,07,11,09,14,21.90
2010,07,11,09,15,21.90
2010,07,11,09,16,21.90
2010,07,11,09,17,21.90
2010,07,11,09,18,22.00
2010,07,11,09,19,22.10
2010,07,11,09,20,22.20
2010,07,11,09,21,22.20
2010,07,11,09,22,22.30
2010,07,11,09,23,22.30
2010,07,11,09,24,22.20
2010,07,11,09,25,22.20
2010,07,11,09,26,22.20
2010,07,11,09,27,22.30
2010,07,11,09,28,22.30
2010,07,11,09,29,22.30
2010,07,11,09,30,22.30
2010,07,11,09,31,22.40
2010,07,11,09,32,22.40
2010,07,11,09,33,22.40
2010,07,11,09,34,22.40
2010,07,11,09,35,22.40
2010,07,11,09,36,22.40
2010,07,11,09,37,22.40
2010,07,11,09,38,22.40
2010,07,11,09,39,22.40
2010,07,11,09,40,22.40
2010,07,11,09,41,22.50
2010,07,11,09,42,22.50
2010,07,11,09,43,22.60
2010,07,11,09,44,22.60
2010,07,11,09,45,22.50
2010,07,11,09,46,22.40
2010,07,11,09,47,22.30
2010,07,11,09,48,22.30
2010,07,11,09,49,22.20
2010,07,11,09,50,22.10
2010,07,11,09,51,22.00
2010,07,11,09,52,22.00
2010,07,11,09,53,21.90
2010,07,11,09,54,21.80
2010,07,11,09,55,21.80
2010,07,11,09,56,21.70
2010,07,11,09,57,21.60
2010,07,11,09,58,21.50
2010,07,11,09,59,21.40
2010,07,11,10,00,21.40
2010,07,11,10,01,21.30
2010,07,11,10,02,21.30
2010,07,11,10,03,21.20
2010,07,11,10,04,21.10
2010,07,11,10,05,21.00
2010,07,11,10,06,20.90
2010,07,11,10,07,20.90
2010,07,11,10,08,20.90
2010,07,11,10,09,20.90
2010,07,11,10,10,20.90
2010,07,11,10,11,21.00
2010,07,11,10,12,21.00
2010,07,11,10,13,21.00
2010,07,11,10,14,21.10
2010,07,11,10,15,21.10
2010,07,11,10,16,21.20
2010,07,11,10,17,21.10
2010,07,11,10,18,21.10
2010,07,11,10,19,21.10
2010,07,11,10,20,21.10
2010,07,11,10,21,21.20
2010,07,11,10,22,21.20
2010,07,11,10,23,21.20
2010,07,11,10,24,21.20
2010,07,11,10,25,21.20
2010,07,11,10,26,21.30
2010,07,11,10,27,21.40
2010,07,11,10,28,21.50
2010,07,11,10,29,21.50
2010,07,11,10,30,21.60
2010,07,11,10,31,21.60
2010,07,11,10,32,21.70
2010,07,11,10,33,21.70
2010,07,11,10,34,21.70
2010,07,11,10,35,21.80
2010,07,11,10,36,21.80
2010,07,11,10,37,21.80
2010,07,11,10,38,21.90
2010,07,11,10,39,21.90
2010,07,11,10,40,21.90
2010,07,11,10,41,21.90
2010,07,11,10,42,21.90
2010,07,11,10,43,21.90
2010,07,11,10,44,21.90
2010,07,11,10,45,22.00
2010,07,11,10,46,22.10
2010,07,11,10,47,22.10
2010,07,11,10,48,22.20
2010,07,11,10,49,22.20
2010,07,11,10,50,22.20
2010,07,11,10,51,22.10
2010,07,11,10,52,22.10
2010,07,11,10,53,22.10
2010,07,11,10,54,22.20
2010,07,11,10,55,22.20
2010,07,11,10,56,22.20
2010,07,11,10,57,22.20
2010,07,11,10,58,22.20
2010,07,11,10,59,22.30
2010,07,11,11,00,22.30
2010,07,11,11,01,22.20
2010,07,11,11,02,22.20
2010,07,11,11,03,22.20
2010,07,11,11,04,22.10
2010,07,11,11,05,22.10
2010,07,11,11,06,22.10
2010,07,11,11,07,22.00
2010,07,11,11,08,22.10
2010,07,11,11,09,22.10
2010,07,11,11,10,22.10
2010,07,11,11,11,22.10
2010,07,11,11,12,22.10
2010,07,11,11,13,22.00
2010,07,11,11,14,22.00
2010,07,11,11,15,21.90
2010,07,11,11,16,21.90
2010,07,11,11,17,21.90
2010,07,11,11,18,21.90
2010,07,11,11,19,21.90
2010,07,11,11,20,21.90
2010,07,11,11,21,21.90
2010,07,11,11,22,21.80
2010,07,11,11,23,21.80
2010,07,11,11,24,21.80
2010,07,11,11,25,21.80
2010,07,11,11,26,21.90
2010,07,11,11,27,21.90
2010,07,11,11,28,21.90
2010,07,11,11,29,21.90
2010,07,11,11,30,21.80
2010,07,11,11,31,21.80
2010,07,11,11,32,21.80
2010,07,11,11,33,21.80
2010,07,11,11,34,21.90
2010,07,11,11,35,21.90
2010,07,11,11,36,21.90
2010,07,11,11,37,21.90
2010,07,11,11,38,21.90
2010,07,11,11,39,21.90
2010,07,11,11,40,22.00
2010,07,11,11,41,22.00
2010,07,11,11,42,22.00
2010,07,11,11,43,21.90
2010,07,11,11,44,21.90
2010,07,11,11,45,21.80
2010,07,11,11,46,21.80
2010,07,11,11,47,21.80
2010,07,11,11,48,21.80
2010,07,11,11,49,21.80
2010,07,11,11,50,21.80
2010,07,11,11,51,21.90
2010,07,11,11,52,21.90
2010,07,11,11,53,22.00
2010,07,11,11,54,22.10
2010,07,11,11,55,22.20
2010,07,11,11,56,22.30
2010,07,11,11,57,22.40
2010,07,11,11,58,22.40
2010,07,11,11,59,22.40
2010,07,11,12,00,22.50
2010,07,11,12,01,22.60
2010,07,11,12,02,22.60
2010,07,11,12,03,22.60
2010,07,11,12,04,22.60
2010,07,11,12,05,22.50
2010,07,11,12,06,22.40
2010,07,11,12,07,22.30
2010,07,11,12,08,22.30
2010,07,11,12,09,22.30
2010,07,11,12,10,22.40
2010,07,11,12,11,22.40
2010,07,11,12,12,22.40
2010,07,11,12,13,22.50
2010,07,11,12,14,22.60
2010,07,11,12,15,22.60
2010,07,11,12,16,22.60
2010,07,11,12,17,22.70
2010,07,11,12,18,22.70
2010,07,11,12,19,22.70
2010,07,11,12,20,22.70
2010,07,11,12,21,22.70
2010,07,11,12,22,22.70
2010,07,11,12,23,22.70
2010,07,11,12,24,22.70
2010,07,11,12,25,22.80
2010,07,11,12,26,22.80
2010,07,11,12,27,22.80
2010,07,11,12,28,22.80
2010,07,11,12,29,22.90
2010,07,11,12,30,22.90
2010,07,11,12,31,23.00
2010,07,11,12,32,23.10
2010,07,11,12,33,23.20
2010,07,11,12,34,23.30
2010,07,11,12,35,23.30
2010,07,11,12,36,23.40
2010,07,11,12,37,23.50
2010,07,11,12,38,23.50
2010,07,11,12,39,23.60
2010,07,11,12,40,23.70
2010,07,11,12,41,23.70
2010,07,11,12,42,23.70
2010,07,11,12,43,23.80
2010,07,11,12,44,23.80
2010,07,11,12,45,23.80
2010,07,11,12,46,23.80
2010,07,11,12,47,23.80
2010,07,11,12,48,23.90
2010,07,11,12,49,23.90
2010,07,11,12,50,23.80
2010,07,11,12,51,23.80
2010,07,11,12,52,23.70
2010,07,11,12,53,23.50
2010,07,11,12,54,23.40
2010,07,11,12,55,23.30
2010,07,11,12,56,23.30
2010,07,11,12,57,23.30
2010,07,11,12,58,23.30
2010,07,11,12,59,23.20
2010,07,11,13,00,23.20
2010,07,11,13,01,23.20
2010,07,11,13,02,23.10
2010,07,11,13,03,23.10
2010,07,11,13,04,23.10
2010,07,11,13,05,23.10
2010,07,11,13,06,23.10
2010,07,11,13,07,23.20
2010,07,11,13,08,23.20
2010,07,11,13,09,23.20
2010,07,11,13,10,23.10
2010,07,11,13,11,23.00
2010,07,11,13,12,23.00
2010,07,11,13,13,22.90
2010,07,11,13,14,22.90
2010,07,11,13,15,22.90
2010,07,11,13,16,23.00
2010,07,11,13,17,23.00
2010,07,11,13,18,23.10
2010,07,11,13,19,23.10
2010,07,11,13,20,23.10
2010,07,11,13,21,23.10
2010,07,11,13,22,23.10
2010,07,11,13,23,23.20
2010,07,11,13,24,23.20
2010,07,11,13,25,23.20
2010,07,11,13,26,23.20
2010,07,11,13,27,23.20
2010,07,11,13,28,23.30
2010,07,11,13,29,23.30
2010,07,11,13,30,23.40
2010,07,11,13,31,23.50
2010,07,11,13,32,23.50
2010,07,11,13,33,23.50
2010,07,11,13,34,23.50
2010,07,11,13,35,23.50
2010,07,11,13,36,23.60
2010,07,11,13,37,23.60
2010,07,11,13,38,23.60
2010,07,11,13,39,23.60
2010,07,11,13,40,23.60
2010,07,11,13,41,23.50
2010,07,11,13,42,23.50
2010,07,11,13,43,23.40
2010,07,11,13,44,23.40
2010,07,11,13,45,23.40
2010,07,11,13,46,23.40
2010,07,11,13,47,23.40
2010,07,11,13,48,23.40
2010,07,11,13,49,23.40
2010,07,11,13,50,23.50
2010,07,11,13,51,23.60
2010,07,11,13,52,23.60
2010,07,11,13,53,23.70
2010,07,11,13,54,23.70
2010,07,11,13,55,23.70
2010,07,11,13,56,23.80
2010,07,11,13,57,23.80
2010,07,11,13,58,23.80
2010,07,11,13,59,23.80
2010,07,11,14,00,23.80
2010,07,11,14,01,23.80
2010,07,11,14,02,23.90
2010,07,11,14,03,23.90
2010,07,11,14,04,23.90
2010,07,11,14,05,23.90
2010,07,11,14,06,23.90
2010,07,11,14,07,24.00
2010,07,11,14,08,24.10
2010,07,11,14,09,24.20
2010,07,11,14,10,24.30
2010,07,11,14,11,24.30
2010,07,11,14,12,24.30
2010,07,11,14,13,24.30
2010,07,11,14,14,24.20
2010,07,11,14,15,24.10
2010,07,11,14,16,24.10
2010,07,11,14,17,24.10
2010,07,11,14,18,24.10
2010,07,11,14,19,24.20
2010,07,11,14,20,24.20
2010,07,11,14,21,24.10
2010,07,11,14,22,24.10
2010,07,11,14,23,24.10
2010,07,11,14,24,24.10
2010,07,11,14,25,24.10
2010,07,11,14,26,24.00
2010,07,11,14,27,24.00
2010,07,11,14,28,24.00
2010,07,11,14,29,24.00
2010,07,11,14,30,23.90
2010,07,11,14,31,23.90
2010,07,11,14,32,23.90
2010,07,11,14,33,23.80
2010,07,11,14,34,23.80
2010,07,11,14,35,23.80
2010,07,11,14,36,23.80
2010,07,11,14,37,23.90
2010,07,11,14,38,24.10
2010,07,11,14,39,24.20
2010,07,11,14,40,24.20
2010,07,11,14,41,24.30
2010,07,11,14,42,24.30
2010,07,11,14,43,24.30
2010,07,11,14,44,24.40
2010,07,11,14,45,24.40
2010,07,11,14,46,24.50
2010,07,11,14,47,24.50
2010,07,11,14,48,24.60
2010,07,11,14,49,24.70
2010,07,11,14,50,24.80
2010,07,11,14,51,24.80
2010,07,11,14,52,24.90
2010,07,11,14,53,24.90
2010,07,11,14,54,25.00
2010,07,11,14,55,25.00
2010,07,11,14,56,25.10
2010,07,11,14,57,25.20
2010,07,11,14,58,25.20
2010,07,11,14,59,25.20
2010,07,11,15,00,25.00
2010,07,11,15,01,25.00
2010,07,11,15,02,24.90
2010,07,11,15,03,24.90
2010,07,11,15,04,24.80
2010,07,11,15,05,24.80
2010,07,11,15,06,24.70
2010,07,11,15,07,24.70
2010,07,11,15,08,24.70
2010,07,11,15,09,24.60
2010,07,11,15,10,24.50
2010,07,11,15,11,24.50
2010,07,11,15,12,24.40
2010,07,11,15,13,24.40
2010,07,11,15,14,24.40
2010,07,11,15,15,24.40
2010,07,11,15,16,24.50
2010,07,11,15,17,24.40
2010,07,11,15,18,24.40
2010,07,11,15,19,24.40
2010,07,11,15,20,24.30
2010,07,11,15,21,24.30
2010,07,11,15,22,24.30
2010,07,11,15,23,24.30
2010,07,11,15,24,24.30
2010,07,11,15,25,24.40
2010,07,11,15,26,24.40
2010,07,11,15,27,24.40
2010,07,11,15,28,24.40
2010,07,11,15,29,24.40
2010,07,11,15,30,24.40
2010,07,11,15,31,24.40
2010,07,11,15,32,24.40
2010,07,11,15,33,24.40
2010,07,11,15,34,24.50
2010,07,11,15,35,24.50
2010,07,11,15,36,24.60
2010,07,11,15,37,24.60
2010,07,11,15,38,24.60
2010,07,11,15,39,24.60
2010,07,11,15,40,24.60
2010,07,11,15,41,24.60
2010,07,11,15,42,24.60
2010,07,11,15,43,24.60
2010,07,11,15,44,24.60
2010,07,11,15,45,24.70
2010,07,11,15,46,24.70
2010,07,11,15,47,24.80
2010,07,11,15,48,24.80
2010,07,11,15,49,24.80
2010,07,11,15,50,24.80
2010,07,11,15,51,24.80
2010,07,11,15,52,24.80
2010,07,11,15,53,24.80
2010,07,11,15,54,24.80
2010,07,11,15,55,24.80
2010,07,11,15,56,24.80
2010,07,11,15,57,24.90
2010,07,11,15,58,25.10
2010,07,11,15,59,25.30
2010,07,11,16,00,25.40
2010,07,11,16,01,25.50
2010,07,11,16,02,25.60
2010,07,11,16,03,25.70
2010,07,11,16,04,25.70
2010,07,11,16,05,25.70
2010,07,11,16,06,25.60
2010,07,11,16,07,25.60
2010,07,11,16,08,25.50
2010,07,11,16,09,25.50
2010,07,11,16,10,25.50
2010,07,11,16,11,25.50
2010,07,11,16,12,25.60
2010,07,11,16,13,25.60
2010,07,11,16,14,25.60
2010,07,11,16,15,25.60
2010,07,11,16,16,25.50
2010,07,11,16,17,25.50
2010,07,11,16,18,25.40
2010,07,11,16,19,25.30
2010,07,11,16,20,25.20
2010,07,11,16,21,25.10
2010,07,11,16,22,25.10
2010,07,11,16,23,25.00
2010,07,11,16,24,25.00
2010,07,11,16,25,25.00
2010,07,11,16,26,25.00
2010,07,11,16,27,24.90
2010,07,11,16,28,24.90
2010,07,11,16,29,24.90
2010,07,11,16,30,25.00
2010,07,11,16,31,25.00
2010,07,11,16,32,25.00
2010,07,11,16,33,25.00
2010,07,11,16,34,25.00
2010,07,11,16,35,25.00
2010,07,11,16,36,25.10
2010,07,11,16,37,25.10
2010,07,11,16,38,25.20
2010,07,11,16,39,25.30
2010,07,11,16,40,25.30
2010,07,11,16,41,25.40
2010,07,11,16,42,25.40
2010,07,11,16,43,25.40
2010,07,11,16,44,25.30
2010,07,11,16,45,25.30
2010,07,11,16,46,25.30
2010,07,11,16,47,25.30
2010,07,11,16,48,25.30
2010,07,11,16,49,25.30
2010,07,11,16,50,25.40
2010,07,11,16,51,25.40
2010,07,11,16,52,25.30
2010,07,11,16,53,25.30
2010,07,11,16,54,25.30
2010,07,11,16,55,25.30
2010,07,11,16,56,25.30
2010,07,11,16,57,25.40
2010,07,11,16,58,25.40
2010,07,11,16,59,25.30
2010,07,11,17,00,25.30
2010,07,11,17,01,25.30
2010,07,11,17,02,25.30
2010,07,11,17,03,25.30
2010,07,11,17,04,25.20
2010,07,11,17,05,25.20
2010,07,11,17,06,25.10
2010,07,11,17,07,25.10
2010,07,11,17,08,25.10
2010,07,11,17,09,25.10
2010,07,11,17,10,25.10
2010,07,11,17,11,25.10
2010,07,11,17,12,25.10
2010,07,11,17,13,25.10
2010,07,11,17,14,25.10
2010,07,11,17,15,25.00
2010,07,11,17,16,25.00
2010,07,11,17,17,25.00
2010,07,11,17,18,24.90
2010,07,11,17,19,24.90
2010,07,11,17,20,24.90
2010,07,11,17,21,24.80
2010,07,11,17,22,24.70
2010,07,11,17,23,24.70
2010,07,11,17,24,24.60
2010,07,11,17,25,24.60
2010,07,11,17,26,24.60
2010,07,11,17,27,24.60